Regional Weather Roundup
Issued by NWS

Home | Current Version | Previous Version | Text Only | Print | Product List | Glossary Off
Versions: 1 2 3 4 5 6 7 8 9 10 11 12 13 14 15 16 17 18 19 20 21 22 23 24 25 26 27 28 29 30 31 32 33 34 35 36 37 38 39 40 41 42 43 44 45 46 47 48 49 50

000
ASUS43 KOAX 050502
RWRNE

WEATHER ROUNDUP FOR NEBRASKA
NATIONAL WEATHER SERVICE OMAHA NE
1200 AM CDT THU MAY 05 2016

NOTES: SATELLITE DATA IS BEING USED TO AUGMENT CLOUD COVER ABOVE
       12000 FEET.
       "FAIR" INDICATES FEW OR NO CLOUDS BELOW 12,000 FEET WITH NO
       SIGNIFICANT WEATHER AND/OR OBSTRUCTIONS TO VISIBILITY.

  * THESE STATIONS DO NOT REPORT WEATHER SUCH AS RAIN...SNOW OR FOG.

NEZ001>004-019>022-054>056-050600-
NEBRASKA PANHANDLE

CITY           SKY/WX    TMP DP  RH WIND       PRES   REMARKS
SCOTTSBLUFF    CLEAR     54  42  64 E6        30.09S
ALLIANCE       CLEAR     48  42  80 S7        30.09R
CHADRON        CLEAR     55  40  56 CALM      30.03S
KIMBALL        CLEAR     52  42  67 S9        30.15S
SIDNEY         CLEAR     48  41  76 S8        30.13F
$$

NEZ057>060-069>072-079>082-050600-
SOUTHWEST NEBRASKA

CITY           SKY/WX    TMP DP  RH WIND       PRES   REMARKS
NORTH PLATTE   CLEAR     48  40  73 E5        30.08S
IMPERIAL       CLEAR     53  42  66 SE8       30.10S
LEXINGTON      CLEAR     49  42  77 CALM      30.08F
MCCOOK         CLEAR     57  41  55 CALM      30.09S
$$

NEZ005>010-023>029-035>040-094-050600-
NORTH CENTRAL NEBRASKA

CITY           SKY/WX    TMP DP  RH WIND       PRES   REMARKS
VALENTINE      CLEAR     54  37  52 SE3       30.07S
AINSWORTH      CLEAR     49  39  68 SE6       30.08S
BROKEN BOW     CLEAR     44  38  79 CALM      30.08S
ORD            CLEAR     43  39  86 CALM      30.07S
$$

NEZ041-046>049-061>064-073>077-083>087-050600-
SOUTH CENTRAL NEBRASKA

CITY           SKY/WX    TMP DP  RH WIND       PRES   REMARKS
GRAND ISLAND   CLEAR     50  38  63 NW3       30.08R
AURORA         CLEAR     50  36  58 N7        30.07S
HASTINGS       CLEAR     50  40  68 W3        30.07S
KEARNEY *      CLEAR     54  39  58 CALM      30.09R
YORK           CLEAR     46  37  71 NW6       30.06F
$$

NEZ011>018-030>034-042>045-050600-
NORTHEAST NEBRASKA

CITY           SKY/WX    TMP DP  RH WIND       PRES   REMARKS
NORFOLK        CLEAR     46  37  71 W7        30.05S
ALBION         CLEAR     44  37  76 NW3       30.07S
BLAIR          CLEAR     55  40  57 NW6       30.02S
COLUMBUS *     CLEAR     45  34  65 CALM      30.06S
FREMONT        CLEAR     51  42  70 W3        30.04S
TEKAMAH        CLEAR     54  40  59 NW8       30.01S
$$

NEZ050>053-065>068-078-088>093-050600-
SOUTHEAST NEBRASKA

CITY           SKY/WX    TMP DP  RH WIND       PRES   REMARKS
LINCOLN        CLEAR     48  40  73 N5        30.05S
OMAHA EPPLEY   CLEAR     52  43  71 CALM      30.01S
BEATRICE       CLEAR     45  40  81 NW3       30.05R
FALLS CITY     CLEAR     53  39  59 CALM      30.02R
$$

NEZ044-045-051>053-067-050600-
OMAHA AREA

CITY           SKY/WX    TMP DP  RH WIND       PRES   REMARKS
OMAHA EPPLEY   CLEAR     52  43  71 CALM      30.01S
BLAIR          CLEAR     55  40  57 NW6       30.02S
FREMONT        CLEAR     51  42  70 W3        30.04S
OFFUTT AFB     CLEAR     50  43  77 W7        30.01S
$$




USA.gov is the U.S. government's official web portal to all federal, state and local government web resources and services.